Flag for Portugal Weather past 2 weeks in Vila Nova de Gaia, Portugal

Now
61 °F

Fog.


Feels Like: 61 °F
Forecast: 53 / 71 °F
Wind: 3 mph from West

Location: Porto / Pedras Rubras

Current Time: Aug 2, 2015 at 8:18:54 AM

Latest Report: Aug 2, 2015 at 7:30 AM


Visibility: 1 mi

Pressure: 29.92 "Hg

Humidity: 100%

Dew point: 61 °F

Location of Vila Nova de GaiaLocation

Historic Weather in Vila Nova de Gaia — Graph

°F

Vila Nova de Gaia temperature yesterday

Maximum temperature yesterday: 75 °F (at 4:00 PM)
Minimum temperature yesterday: 57 °F (at 3:00 AM)
Average temperature yesterday: 65 °F

Past Weeks' High & Low Weather Summary

 TemperatureHumidityPressure
High75 °F (Jul 19, 3:00 PM)100% (Jul 18, 7:00 AM)30.12 "Hg (Jul 18, 7:00 AM)
Low52 °F (Jul 25, 6:30 AM)50% (Jul 25, 3:00 PM)29.80 "Hg (Jul 31, 3:00 AM)
Average67 °F86%30.02 "Hg
* Reported Jul 18 7:00 AM — Aug 2 7:00 AM, Vila Nova de Gaia, Weather by CustomWeather, © 2015

Note: Actual official high and low records may vary slightly from our data, if they occured in-between our weather recording intervals... More about our weather records

Advertising

Vila Nova de Gaia weather history for previous 24 hours

 ConditionsComfort  
Time TempWeatherWind HumidityBarometerVisibility
7:00 AM
Sun, Aug 2
61 °FFog.2 mph100%29.92 "Hg0 mi
6:30 AM61 °FFog.2 mph100%29.92 "Hg1 mi
6:00 AM59 °FCool.3 mph100%29.92 "Hg1 mi
5:30 AM59 °FPassing clouds.1 mph100%29.92 "Hg1 mi
5:00 AM61 °FPassing clouds.3 mph100%29.92 "Hg5 mi
4:30 AM59 °FLight fog.5 mph100%29.89 "Hg4 mi
4:00 AM59 °FPassing clouds.3 mph100%29.89 "Hg4 mi
3:30 AM59 °FFog.No wind100%29.92 "Hg1 mi
3:00 AM61 °FPassing clouds.1 mph94%29.92 "Hg5 mi
2:30 AM59 °FClear.No wind100%29.92 "Hg10 mi
2:00 AM59 °FClear.2 mph100%29.92 "Hg10 mi
1:30 AM59 °FClear.2 mph100%29.92 "Hg10 mi
1:00 AM61 °FClear.No wind94%29.92 "Hg10 mi
12:30 AM61 °FClear.No wind94%29.92 "Hg10 mi
12:00 AM61 °FClear.No wind94%29.92 "Hg10 mi
11:00 PM
Sat, Aug 1
63 °FClear.5 mph88%29.92 "Hg10 mi
10:30 PM61 °FClear.No wind94%29.92 "Hg10 mi
10:00 PM63 °FClear.No wind88%29.92 "Hg10 mi
9:30 PM63 °FSunny.1 mph88%29.92 "Hg10 mi
9:00 PM66 °FSunny.6 mph78%29.92 "Hg10 mi
8:30 PM72 °FSunny.2 mph69%29.89 "Hg10 mi
8:00 PM73 °FPassing clouds.5 mph65%29.92 "HgN/A
7:30 PM73 °FSunny.7 mph61%29.89 "Hg10 mi
7:00 PM73 °FPassing clouds.9 mph61%29.92 "HgN/A
6:30 PM73 °FPassing clouds.9 mph61%29.92 "HgN/A
6:00 PM75 °FPassing clouds.10 mph57%29.92 "HgN/A
5:30 PM75 °FSunny.9 mph57%29.92 "Hg10 mi
5:00 PM75 °FPassing clouds.10 mph57%29.92 "HgN/A
4:30 PM73 °FPassing clouds.10 mph61%29.95 "HgN/A
4:00 PM75 °FPassing clouds.10 mph61%29.95 "HgN/A
3:30 PM73 °FPassing clouds.10 mph61%29.95 "HgN/A
3:00 PM72 °FPassing clouds.9 mph65%29.95 "HgN/A
2:30 PM72 °FSunny.8 mph65%29.95 "Hg10 mi
2:00 PM73 °FPassing clouds.8 mph65%29.95 "HgN/A
1:30 PM72 °FPassing clouds.6 mph69%29.95 "HgN/A
1:00 PM70 °FPassing clouds.7 mph78%29.95 "HgN/A
12:30 PM70 °FPassing clouds.7 mph78%29.95 "HgN/A
12:00 PM70 °FPassing clouds.6 mph78%29.95 "HgN/A
11:30 AM70 °FPassing clouds.6 mph78%29.95 "HgN/A
11:00 AM70 °FClear.3 mph83%29.95 "Hg5 mi
10:30 AM64 °FPassing clouds.3 mph94%29.95 "Hg4 mi
10:00 AM63 °FFog.2 mph100%29.95 "Hg1 mi
9:30 AM61 °FFog.2 mph100%29.95 "Hg1 mi
9:00 AM61 °FFog.3 mph100%29.95 "Hg0 mi
8:30 AM59 °FFog.3 mph100%29.95 "Hg0 mi
8:00 AM59 °FFog.5 mph100%29.95 "Hg0 mi
Weather by CustomWeather, © 2015

See weather overviewHow to use our weather pages